sat.trackr.live / text

‹ back to catalog

STARLINK-5676

NORAD 55464 · 2023-015R

PAYLOAD ACTIVE UNKNOWN

§ Identity

Operator
Country
US
Launch date
2023-02-02
Launch site
AFETR
Launch vehicle
Mass (kg)
RCS (m²)

Purposes: comms

External: N2YO · Heavens-Above · Gunter

§ Orbital elements

Epoch: 2026-09-20T14:45:38.568672Z

Period
94.27 min
Inclination
43.0022°
Eccentricity
0.0001307
Mean motion
15.27578019 rev/d
Perigee alt
482.2 km
Apogee alt
484.0 km
Semi-major
6,861.2 km
B*
1.3718e-5
RAAN
307.8569°
Arg perigee
268.7715°
Mean anomaly
91.2987°
Rev number
20,053

§ Raw data

STARLINK-56761 55464U 23015R   26263.61502973  .00000115  00000+0  13718-4 0  99972 55464  43.0022 307.8569 0001307 268.7715  91.2987 15.27578019200533

JSON: /api/v1/satellites/55464 · /tle

For live sub-satellite position, see the globe view (requires WebGL).

§ Visibility from observer

Set your observer location to see the next 7 days of passes ≥ 10°. The values pass through the URL so the page stays shareable.

No JS? Fill the form by hand. The geolocation button needs JavaScript.